Weather History for Winnemucca, NV

Change the Weather History Date:

Tuesday, January 24, 2012

  Actual Average Record
Temperature  
Mean Temperature 26 °F 31 °F  
Max Temperature 40 °F 42 °F 60 °F (1946)
Min Temperature 11 °F 20 °F -23 °F (1949)
Degree Days  
Heating Degree Days 39 34  
Month to date heating degree days 826 847  
Since 1 July heating degree days 3503 3520  
Cooling Degree Days 0 0  
Month to date cooling degree days 0 0  
Year to date cooling degree days 0 0  
Moisture  
Dew Point 24 °F    
Average Humidity 82    
Maximum Humidity 100    
Minimum Humidity 64    
Precipitation  
Precipitation 0.00 in 0.02 in 0.55 in (2000)
Month to date precipitation 0.73 0.70  
Year to date precipitation 0.73 0.70  
Snow  
Snow 0.00 in 0.10 in 4.50 in (1937)
Month to date snowfall 5.2 2.9  
Since 1 July snowfall 11.8 11.7  
Snow Depth 2.00 in    
Sea Level Pressure  
Sea Level Pressure 30.34 in    
Wind  
Wind Speed 8 mph (South)    
Max Wind Speed 16 mph    
Max Gust Speed 21 mph    
Visibility 10 miles    
Events      
T = Trace of Precipitation, MM = Missing Value Source: NWS Daily Summary

Daily Weather History Graph

Daily Weather History Graph

Search for Another Location

Airport:

Trip Planner

Search our weather history database for the weather conditions in past years. The results will help you decide how hot, cold, wet, or windy it might be!

Date:

Astronomy

Jan. 24, 2012 Rise Set
Actual Time 7:08 AM PST 4:58 PM PST
Civil Twilight 6:39 AM PST 5:27 PM PST
Nautical Twilight 6:05 AM PST 6:01 PM PST
Astronomical Twilight 5:33 AM PST 6:33 PM PST
Moon 7:39 AM PST (1/24) 6:55 PM PST (1/24)
Length of Visible Light 10h 48m
Length of Day
9h 49m
Waxing Crescent, 3% of the Moon is Illuminated
Jan 24
Waxing Crescent
Jan 30
First Quarter
Feb 7
Full
Feb 14
Last Quarter
Feb 21
New

Hourly Weather History & Observations

Time (PST) Temp. Windchill Dew Point Humidity Pressure Visibility Wind Dir Wind Speed Gust Speed Precip Events Conditions
12:56 AM 18.0 °F - 17.1 °F 96% 30.24 in 10.0 mi Calm Calm - N/A   Clear
1:56 AM 16.0 °F 6.3 °F 14.0 °F 92% 30.26 in 10.0 mi SE 6.9 mph - N/A   Clear
2:56 AM 16.0 °F 7.4 °F 14.0 °F 92% 30.26 in 10.0 mi ESE 5.8 mph - N/A   Clear
3:56 AM 16.0 °F 8.8 °F 14.0 °F 92% 30.30 in 10.0 mi SE 4.6 mph - N/A   Clear
4:56 AM 15.1 °F 7.7 °F 12.9 °F 91% 30.31 in 10.0 mi SE 4.6 mph - N/A   Clear
5:56 AM 16.0 °F - 12.9 °F 88% 30.32 in 10.0 mi Calm Calm - N/A   Clear
6:56 AM 12.0 °F - 10.0 °F 92% 30.34 in 10.0 mi Calm Calm - N/A   Clear
7:56 AM 17.1 °F - 16.0 °F 96% 30.35 in 10.0 mi Calm Calm - N/A   Clear
8:56 AM 21.9 °F - 19.9 °F 92% 30.35 in 10.0 mi Calm Calm - N/A   Scattered Clouds
9:56 AM 33.1 °F 25.5 °F 28.9 °F 85% 30.36 in 10.0 mi South 9.2 mph - N/A   Overcast
10:56 AM 34.0 °F 25.5 °F 28.9 °F 82% 30.35 in 10.0 mi South 11.5 mph - N/A   Mostly Cloudy
11:56 AM 36.0 °F 28.5 °F 30.9 °F 82% 30.34 in 10.0 mi South 10.4 mph - N/A   Overcast
12:56 PM 36.0 °F 28.5 °F 30.9 °F 82% 30.32 in 10.0 mi South 10.4 mph - N/A   Overcast
1:56 PM 37.0 °F 30.4 °F 30.0 °F 76% 30.33 in 10.0 mi South 9.2 mph - N/A   Overcast
2:56 PM 37.0 °F 30.4 °F 30.0 °F 76% 30.33 in 10.0 mi South 9.2 mph - N/A   Overcast
3:56 PM 37.0 °F 28.9 °F 30.0 °F 76% 30.33 in 10.0 mi South 12.7 mph - N/A   Overcast
4:56 PM 36.0 °F 28.5 °F 30.0 °F 79% 30.38 in 10.0 mi South 10.4 mph - N/A   Overcast
5:56 PM 36.0 °F 28.5 °F 30.0 °F 79% 30.38 in 10.0 mi South 10.4 mph - N/A   Mostly Cloudy
6:56 PM 37.0 °F 29.3 °F 28.9 °F 73% 30.40 in 10.0 mi South 11.5 mph - N/A   Overcast
7:56 PM 37.0 °F 28.9 °F 28.9 °F 73% 30.40 in 10.0 mi South 12.7 mph - N/A   Overcast
8:56 PM 37.9 °F 30.0 °F 28.0 °F 68% 30.40 in 10.0 mi South 12.7 mph - N/A   Overcast
9:56 PM 37.9 °F 29.6 °F 28.9 °F 70% 30.39 in 10.0 mi South 13.8 mph - N/A   Overcast
10:56 PM 39.0 °F 31.8 °F 28.9 °F 67% 30.40 in 10.0 mi South 11.5 mph - N/A   Overcast
11:56 PM 39.9 °F 32.5 °F 30.0 °F 68% 30.40 in 10.0 mi South 12.7 mph - N/A   Overcast